Location: Csohesd
(46.2500°N, 22.6167°E)
Time: 05:58:22
(UTC+00:00)

Cosmos 614 Rocket - Pass Details

Date: 21 October 2021
Orbit: 733 x 763 km, 74.1° (Epoch: 04 December)

Event Time Altitude Azimuth Distance (km) Brightness Sun altitude
Rises 17:26:06 0° 340° (NNW) 3,172 7.5 -20.3°
Reaches altitude 10° 17:28:29 10° 343° (NNW) 2,247 6.7 -20.7°
Maximum altitude 17:33:32 68° 66° (ENE) 793 3.8 -21.6°
Enters shadow 17:34:53 47° 131° (SE) 972 4.1 -21.8°
